[[{"header":{"parameterUnit":"m.s-1","parameterCategory":1,"la1":30.2992,"la2":30.254,"lo1":-89.0895,"lo2":-89.0443,"dy":0.0025,"dx":0.0025,"nx":19,"ny":19,"refTime":"2026-05-23T09:00:00:Z","depth":0,"parameterNumber":2,"parameterNumberName":"U-component_of_WINDS"},"data":[0,0,0,-2.2031,-2.2032,-2.2088,-2.2089,-2.2174,-2.2175,0,0,0,0,0,0,0,0,0,0,0,-2.202,-2.2021,-2.2031,-2.2032,-2.2088,-2.2089,-2.2174,-2.2175,0,0,0,0,0,0,0,0,0,0,0,-2.202,-2.2021,-2.2022,-2.2032,-2.2088,-2.2089,-2.2173,-2.2126,0,0,0,0,0,0,0,0,0,0,-2.207,-2.2066,-2.2021,-2.2022,-2.2033,-2.2088,-2.2089,-2.2124,-2.2129,-2.2153,0,-2.2175,0,-2.2176,-2.2181,-2.2181,0,0,0,-2.2028,-2.2061,-2.2071,-2.2022,-2.2033,-2.2088,-2.2062,-2.2127,-2.2133,-2.2161,-2.2176,-2.2179,-2.2178,-2.2182,-2.2182,-2.2332,-2.2333,0,0,-2.2025,-2.2034,-2.2067,-2.2075,-2.2066,-2.206,-2.2064,-2.213,-2.2148,-2.2176,-2.2181,-2.2179,-2.2182,-2.2183,-2.2331,-2.2332,0,0,0,-2.2019,-2.2032,-2.2039,-2.2072,-2.2081,-2.2062,-2.2066,-2.2145,-2.2147,-2.2181,-2.218,-2.2183,-2.2184,-2.233,-2.2331,-2.2384,0,0,0,-2.2017,-2.2028,-2.2038,-2.2045,-2.208,-2.2114,-2.2079,-2.2142,-2.215,-2.2179,-2.2183,-2.2185,-2.2329,-2.2331,-2.2381,-2.2407,0,0,0,-2.2014,-2.2028,-2.2038,-2.2045,-2.207,-2.2112,-2.2117,-2.2144,-2.2149,-2.2181,-2.2185,-2.2328,-2.233,-2.2377,-2.2402,-2.2449,0,0,0,-2.2015,-2.2085,-2.2039,-2.2117,-2.2069,-2.2145,-2.2117,-2.2173,-2.2207,-2.2183,-2.2329,-2.2331,-2.2376,-2.2399,-2.2446,-2.249,-2.2509,0,0,-2.2108,-2.2096,-2.2142,-2.2102,-2.2188,-2.2135,-2.2229,-2.2252,-2.2248,-2.2305,-2.2308,-2.2382,-2.2402,-2.2449,-2.2617,-2.2632,0,0,0,-2.2174,-2.2207,-2.2227,-2.226,-2.2279,-2.2298,-2.2305,-2.2315,-2.2362,-2.2278,-2.2412,-2.2424,-2.2451,-2.2471,-2.2484,-2.2507,-2.2341,-2.2341,-2.2341,-2.2318,-2.2309,-2.2383,-2.238,-2.2413,-2.2421,-2.2446,-2.246,-2.244,-2.2473,-2.2489,-2.2592,-2.2616,-2.2626,-2.265,-2.2512,-2.2513,-2.2513,-2.2513,-2.2453,-2.2497,-2.2471,-2.2533,-2.2524,-2.2576,-2.2588,-2.2573,-2.2622,-2.2578,-2.2602,-2.2554,-2.2643,-2.2664,-2.2517,-2.2516,-2.2516,-2.2515,-2.2515,-2.2545,-2.2565,-2.2575,-2.2622,-2.266,-2.2656,-2.2704,-2.2694,-2.2685,-2.2708,-2.2724,-2.2723,-2.2721,-2.2717,-2.2717,-2.2718,-2.2718,-2.2718,-2.2718,-2.2636,-2.2646,-2.2687,-2.2714,-2.2735,-2.2761,-2.2771,-2.2792,-2.2812,-2.2801,-2.2801,-2.2779,-2.2654,-2.2622,-2.2724,-2.2723,-2.2722,-2.2722,-2.2721,-2.2774,-2.2742,-2.2805,-2.2825,-2.2858,-2.2897,-2.2884,-2.2927,-2.2943,-2.2968,-2.2942,-2.2851,-2.2838,-2.2828,-2.2801,-2.2943,-2.2943,-2.2943,-2.2943,-2.2851,-2.2844,-2.2907,-2.294,-2.2973,-2.2968,-2.3042,-2.3053,-2.3058,-2.3068,-2.3047,-2.3011,-2.3001,-2.2994,-2.298,-2.2955,-2.3133,-2.3133,-2.3133,-2.2935,-2.2931,-2.2994,-2.2999,-2.3024,-2.3047,-2.3116,-2.3158,-2.3158,-2.3141,-2.3075,-2.3067,-2.301,-2.2992,-2.2971,-2.2949,-2.2903,0,0]},{"header":{"parameterUnit":"m.s-1","parameterCategory":1,"la1":30.2992,"la2":30.254,"lo1":-89.0895,"lo2":-89.0443,"dy":0.0025,"dx":0.0025,"nx":19,"ny":19,"refTime":"2026-05-23T09:00:00:Z","depth":0,"parameterNumber":3,"parameterNumberName":"V-component_of_WINDS"},"data":[0,0,0,1.9567,1.957,1.9717,1.9717,1.9891,1.9893,0,0,0,0,0,0,0,0,0,0,0,1.9516,1.9517,1.9567,1.957,1.9717,1.9717,1.9891,1.9893,0,0,0,0,0,0,0,0,0,0,0,1.9516,1.9517,1.9518,1.9571,1.9716,1.9717,1.9891,1.9785,0,0,0,0,0,0,0,0,0,0,1.9645,1.959,1.9516,1.9518,1.9572,1.9716,1.9717,1.978,1.9792,1.9819,0,1.9842,0,1.987,1.9903,1.9904,0,0,0,1.9576,1.958,1.9627,1.9518,1.9573,1.9716,1.9652,1.9787,1.98,1.9834,1.9845,1.9851,1.9873,1.9905,1.9905,2.0045,2.0046,0,0,1.9568,1.9538,1.9618,1.9635,1.9612,1.9648,1.9657,1.9795,1.9804,1.9845,1.9856,1.9876,1.9906,1.9907,2.0045,2.0045,0,0,0,1.9541,1.9532,1.9576,1.9627,1.9655,1.9652,1.9662,1.9798,1.9814,1.9858,1.9878,1.9907,1.9909,2.0045,2.0045,2.0034,0,0,0,1.9537,1.9516,1.9572,1.9555,1.9652,1.9728,1.9662,1.9805,1.9821,1.9877,1.9907,1.991,2.0044,2.0045,2.0033,2.0033,0,0,0,1.9509,1.9513,1.9532,1.9553,1.9615,1.9727,1.9751,1.9809,1.9833,1.9904,1.9911,2.0044,2.0045,2.0033,2.0033,2.0061,0,0,0,1.9471,1.952,1.9531,1.9593,1.9613,1.9718,1.9751,1.9831,1.989,1.9907,2.0044,2.0045,2.0033,2.0032,2.006,2.0079,2.0084,0,0,1.9515,1.9524,1.9563,1.9577,1.9672,1.9698,1.9793,1.9876,1.9911,1.9998,2.0002,2.0033,2.0032,2.0061,2.0123,2.0127,0,0,0,1.9567,1.9594,1.9626,1.9681,1.9746,1.9801,1.9873,1.9904,1.998,1.9949,2.0052,2.0053,2.0071,2.0081,2.0084,2.0101,2.0049,2.0049,2.0048,1.9585,1.9627,1.9694,1.9753,1.9806,1.988,1.9926,1.9981,2.0007,2.0031,2.0057,2.009,2.0101,2.0103,2.012,2.0071,2.0071,2.0071,2.0071,1.9653,1.9699,1.9733,1.981,1.9853,1.9919,1.9992,2.0008,2.0075,2.0074,2.0091,2.0085,2.0106,2.0123,2.007,2.007,2.007,2.007,2.007,1.967,1.9699,1.9735,1.9819,1.9879,1.9937,2.0,2.0038,2.0074,2.0091,2.0123,2.0123,2.0128,2.0104,2.0104,2.0104,2.0104,2.0104,2.0104,1.9672,1.9714,1.9762,1.9835,1.9875,1.9932,2.0007,2.0047,2.0102,2.0125,2.0125,2.0149,2.01,2.0087,2.0106,2.0106,2.0106,2.0105,2.0105,1.9725,1.9719,1.9793,1.9833,1.9921,1.9978,2.0026,2.0105,2.0144,2.0174,2.0194,2.0152,2.0164,2.0161,2.0151,2.0185,2.0185,2.0185,2.0185,1.9739,1.9748,1.9832,1.9894,1.9959,2.0009,2.0091,2.0149,2.0209,2.0236,2.0236,2.0225,2.0221,2.0235,2.0232,2.0222,2.0274,2.0274,2.0274,1.9773,1.9791,1.9853,1.9911,1.9983,2.0043,2.0122,2.0191,2.0258,2.0278,2.0257,2.0254,2.0236,2.0229,2.0248,2.0242,2.0225,0,0]}]]